| time (UTC) | temp C | wind direction | speed KPH | gust KPH | rain 1hr cm | rain 24hr cm | rain mn cm | humidity % | barometer mb |
| 20260505014213 | 26 | 70 | 8.0 | 0.0 | 0.00 | 0.00 | 0.00 | 78 | 1015.0 |
| 20260505013211 | 26 | 70 | 8.0 | 0.0 | 0.00 | 0.00 | 0.00 | 78 | 1015.0 |
| 20260505012210 | 26 | 70 | 8.0 | 0.0 | 0.00 | 0.00 | 0.00 | 78 | 1015.0 |
| 20260505011207 | 26 | 70 | 8.0 | 0.0 | 0.00 | 0.00 | 0.00 | 78 | 1015.0 |
| 20260505010205 | 27 | 70 | 12.9 | 0.0 | 0.00 | 0.00 | 0.00 | 74 | 1015.0 |
| 20260505005202 | 27 | 70 | 12.9 | 0.0 | 0.00 | 0.00 | 0.00 | 74 | 1015.0 |
| 20260505004201 | 27 | 70 | 12.9 | 0.0 | 0.00 | 0.00 | 0.00 | 74 | 1015.0 |
| 20260505003159 | 27 | 70 | 12.9 | 0.0 | 0.00 | 0.00 | 0.00 | 74 | 1015.0 |
| 20260505002156 | 27 | 70 | 12.9 | 0.0 | 0.00 | 0.00 | 0.00 | 74 | 1014.0 |
| 20260505001155 | 27 | 70 | 12.9 | 0.0 | 0.00 | 0.00 | 0.00 | 74 | 1014.0 |
| 20260505000153 | 30 | 90 | 9.7 | 0.0 | 0.00 | 0.00 | 0.00 | 62 | 1014.0 |
| 20260504235152 | 30 | 90 | 9.7 | 0.0 | 0.00 | 0.00 | 0.00 | 62 | 1014.0 |
| 20260504234151 | 30 | 90 | 9.7 | 0.0 | 0.00 | 0.00 | 0.00 | 62 | 1014.0 |
| 20260504233149 | 30 | 90 | 9.7 | 0.0 | 0.00 | 0.00 | 0.00 | 62 | 1014.0 |
| 20260504232148 | 30 | 90 | 9.7 | 0.0 | 0.00 | 0.00 | 0.00 | 62 | 1013.0 |
| 20260504231145 | 30 | 90 | 9.7 | 0.0 | 0.00 | 0.00 | 0.00 | 62 | 1013.0 |
| 20260504230144 | 30 | 80 | 14.5 | 0.0 | 0.00 | 0.00 | 0.00 | 62 | 1013.0 |
| 20260504225142 | 30 | 80 | 14.5 | 0.0 | 0.00 | 0.00 | 0.00 | 62 | 1013.0 |
| 20260504224140 | 30 | 80 | 14.5 | 0.0 | 0.00 | 0.00 | 0.00 | 62 | 1013.0 |
| 20260504223137 | 30 | 90 | 17.7 | 0.0 | 0.00 | 0.00 | 0.00 | 60 | 1013.0 |
| 20260504222136 | 30 | 90 | 17.7 | 0.0 | 0.00 | 0.00 | 0.00 | 60 | 1013.0 |
| 20260504221135 | 30 | 90 | 17.7 | 0.0 | 0.00 | 0.00 | 0.00 | 59 | 1013.0 |
| 20260504220133 | 30 | 90 | 17.7 | 0.0 | 0.00 | 0.00 | 0.00 | 57 | 1013.0 |
| 20260504215132 | 30 | 90 | 17.7 | 0.0 | 0.00 | 0.00 | 0.00 | 57 | 1013.0 |
| 20260504214131 | 30 | 90 | 17.7 | 0.0 | 0.00 | 0.00 | 0.00 | 57 | 1013.0 |
| 20260504213129 | 30 | 90 | 17.7 | 0.0 | 0.00 | 0.00 | 0.00 | 57 | 1013.0 |
| 20260504212127 | 30 | 90 | 17.7 | 0.0 | 0.00 | 0.00 | 0.00 | 57 | 1013.0 |
| 20260504211114 | 30 | 90 | 17.7 | 0.0 | 0.00 | 0.00 | 0.00 | 56 | 1013.0 |
| 20260504210113 | 30 | 90 | 17.7 | 0.0 | 0.00 | 0.00 | 0.00 | 55 | 1013.0 |
| 20260504205106 | 30 | 90 | 19.3 | 0.0 | 0.00 | 0.00 | 0.00 | 53 | 1013.0 |
| 20260504204105 | 30 | 90 | 19.3 | 0.0 | 0.00 | 0.00 | 0.00 | 53 | 1013.0 |
| 20260504203103 | 30 | 90 | 19.3 | 0.0 | 0.00 | 0.00 | 0.00 | 53 | 1013.0 |
| 20260504202100 | 30 | 90 | 19.3 | 0.0 | 0.00 | 0.00 | 0.00 | 53 | 1013.0 |
| 20260504201059 | 30 | 90 | 19.3 | 0.0 | 0.00 | 0.00 | 0.00 | 53 | 1013.0 |
| 20260504200058 | 30 | 100 | 17.7 | 0.0 | 0.00 | 0.00 | 0.00 | 53 | 1013.0 |
| 20260504195056 | 30 | 100 | 17.7 | 0.0 | 0.00 | 0.00 | 0.00 | 53 | 1013.0 |
| 20260504194055 | 30 | 100 | 17.7 | 0.0 | 0.00 | 0.00 | 0.00 | 53 | 1013.0 |
| 20260504193053 | 30 | 100 | 17.7 | 0.0 | 0.00 | 0.00 | 0.00 | 53 | 1013.0 |
| 20260504192052 | 30 | 100 | 17.7 | 0.0 | 0.00 | 0.00 | 0.00 | 54 | 1013.0 |
| 20260504191051 | 30 | 100 | 17.7 | 0.0 | 0.00 | 0.00 | 0.00 | 55 | 1013.0 |
| 20260504190049 | 29 | 100 | 19.3 | 0.0 | 0.00 | 0.00 | 0.00 | 56 | 1013.0 |
| 20260504185048 | 29 | 100 | 19.3 | 0.0 | 0.00 | 0.00 | 0.00 | 56 | 1013.0 |
| 20260504184046 | 29 | 100 | 19.3 | 0.0 | 0.00 | 0.00 | 0.00 | 56 | 1013.0 |
| 20260504183044 | 29 | 100 | 19.3 | 0.0 | 0.00 | 0.00 | 0.00 | 56 | 1013.0 |
| 20260504182042 | 29 | 100 | 19.3 | 0.0 | 0.00 | 0.00 | 0.00 | 56 | 1014.0 |
| 20260504181040 | 29 | 100 | 19.3 | 0.0 | 0.00 | 0.00 | 0.00 | 56 | 1014.0 |
| 20260504180039 | 29 | 100 | 19.3 | 37.0 | 0.00 | 0.00 | 0.00 | 56 | 1014.0 |
| 20260504175038 | 29 | 100 | 19.3 | 37.0 | 0.00 | 0.00 | 0.00 | 56 | 1014.0 |
| 20260504174035 | 29 | 100 | 19.3 | 37.0 | 0.00 | 0.00 | 0.00 | 56 | 1014.0 |
| 20260504173034 | 29 | 100 | 19.3 | 37.0 | 0.00 | 0.00 | 0.00 | 57 | 1014.0 |
| 20260504172032 | 29 | 100 | 19.3 | 37.0 | 0.00 | 0.00 | 0.00 | 58 | 1015.0 |
| 20260504171031 | 29 | 100 | 19.3 | 37.0 | 0.00 | 0.00 | 0.00 | 60 | 1015.0 |
| 20260504151012 | 28 | 100 | 16.1 | 0.0 | 0.00 | 0.00 | 0.00 | 66 | 1016.0 |
| 20260504141001 | 26 | 110 | 17.7 | 0.0 | 0.00 | 0.00 | 0.00 | 80 | 1016.0 |
| 20260504081909 | 22 | 140 | 6.4 | 0.0 | 0.00 | 0.00 | 0.00 | 94 | 1015.0 |
| 20260504080908 | 22 | 140 | 6.4 | 0.0 | 0.00 | 0.00 | 0.00 | 94 | 1015.0 |
| 20260504045842 | 22 | 120 | 6.4 | 0.0 | 0.00 | 0.00 | 0.00 | 94 | 1016.0 |
| 20260504044841 | 23 | 120 | 6.4 | 0.0 | 0.00 | 0.00 | 0.00 | 94 | 1016.0 |
| 20260504043839 | 23 | 120 | 6.4 | 0.0 | 0.00 | 0.00 | 0.00 | 88 | 1016.0 |
| 20260504042838 | 23 | 120 | 6.4 | 0.0 | 0.00 | 0.00 | 0.00 | 88 | 1016.0 |
| 20260504041836 | 23 | 120 | 6.4 | 0.0 | 0.00 | 0.00 | 0.00 | 88 | 1016.0 |
| 20260504040834 | 23 | 100 | 6.4 | 0.0 | 0.00 | 0.00 | 0.00 | 88 | 1016.0 |
| 20260504035833 | 23 | 100 | 6.4 | 0.0 | 0.00 | 0.00 | 0.00 | 88 | 1016.0 |
| 20260504034831 | 23 | 100 | 6.4 | 0.0 | 0.00 | 0.00 | 0.00 | 88 | 1016.0 |
| 20260504033829 | 23 | 100 | 6.4 | 0.0 | 0.00 | 0.00 | 0.00 | 88 | 1016.0 |
| 20260504032828 | 23 | 100 | 6.4 | 0.0 | 0.00 | 0.00 | 0.00 | 88 | 1016.0 |
| 20260504031826 | 23 | 100 | 6.4 | 0.0 | 0.00 | 0.00 | 0.00 | 88 | 1016.0 |
| 20260504030825 | 23 | 100 | 6.4 | 0.0 | 0.00 | 0.00 | 0.00 | 88 | 1016.0 |
| 20260504025823 | 23 | 70 | 6.4 | 0.0 | 0.00 | 0.00 | 0.00 | 88 | 1016.0 |
| 20260504024822 | 23 | 70 | 6.4 | 0.0 | 0.00 | 0.00 | 0.00 | 88 | 1016.0 |
| 20260504023820 | 23 | 70 | 6.4 | 0.0 | 0.00 | 0.00 | 0.00 | 88 | 1016.0 |
| 20260504022819 | 23 | 70 | 6.4 | 0.0 | 0.00 | 0.00 | 0.00 | 88 | 1016.0 |
| 20260504021817 | 23 | 70 | 6.4 | 0.0 | 0.00 | 0.00 | 0.00 | 88 | 1016.0 |
| 20260504020816 | 23 | 70 | 6.4 | 0.0 | 0.00 | 0.00 | 0.00 | 88 | 1016.0 |
| 20260504015814 | 26 | 80 | 6.4 | 0.0 | 0.00 | 0.00 | 0.00 | 69 | 1016.0 |